Location: Cheching
(60.0667°N, 164.2167°W)
Time: 20:51:51
(UTC+00:00)

LilacSat-2 - Pass Details

Date: 25 January 2021
Orbit: 512 x 534 km, 97.5° (Epoch: 07 March)

Event Time Altitude Azimuth Distance (km) Brightness Sun altitude
Rises 16:35:46 0° 19° (NNE) 2,692 ? -20.4°
Reaches altitude 10° 16:37:58 10° 26° (NNE) 1,799 ? -20.1°
Maximum altitude 16:41:41 43° 99° (E) 763 ? -19.6°
Drops below altitude 10° 16:45:24 10° 172° (S) 1,791 ? -19.2°
Sets 16:47:35 0° 179° (S) 2,678 ? -18.9°
